SQ5AAG-2 Weather Reports


time (UTC)temp
C
wind
direction
speed
KPH
gust
KPH
rain 1hr
cm
rain 24hr
cm
rain mn
cm
humidity
%
barometer
mb
20260504090131 23 202 0.0 0.0 0.00 0.00 0.00 33 998.7
20260504081628 22 180 0.0 1.6 0.00 0.00 0.00 34 998.9
20260504081128 22 112 0.0 1.6 0.00 0.00 0.00 34 998.8
20260504080627 22 180 0.0 0.0 0.00 0.00 0.00 34 998.9
20260504080128 22 90 0.0 0.0 0.00 0.00 0.00 34 998.8
20260504070124 20 135 0.0 0.0 0.00 0.00 0.00 36 999.0
20260504060125 22 135 0.0 0.0 0.00 0.00 0.00 33 999.0
20260504060120 22 135 0.0 0.0 0.00 0.00 0.00 33 999.0
20260504050617 20 112 0.0 0.0 0.00 0.00 0.00 36 999.1
20260504050117 20 157 0.0 4.8 0.00 0.00 0.00 36 999.1
20260504045616 20 180 0.0 0.0 0.00 0.00 0.00 36 999.1
20260504045116 20 112 0.0 0.0 0.00 0.00 0.00 36 999.1
20260504044616 20 135 0.0 0.0 0.00 0.00 0.00 37 999.0
20260504044115 20 157 0.0 0.0 0.00 0.00 0.00 37 998.9
20260504043615 20 135 0.0 0.0 0.00 0.00 0.00 37 999.1
20260504043202 19 90 0.0 0.0 0.00 0.00 0.00 38 999.0
20260504043115 19 90 0.0 0.0 0.00 0.00 0.00 38 998.8
20260504042742 19 90 0.0 0.0 0.00 0.00 0.00 38 999.0
20260504042740 18 112 0.0 0.0 0.00 0.00 0.00 40 999.0
20260504042615 19 90 0.0 0.0 0.00 0.00 0.00 38 999.0
20260504042114 19 90 0.0 0.0 0.00 0.00 0.00 38 999.0
20260504041614 18 112 0.0 0.0 0.00 0.00 0.00 40 999.0
20260504041115 18 90 0.0 0.0 0.00 0.00 0.00 40 999.1
20260504040613 18 90 0.0 0.0 0.00 0.00 0.00 41 998.8
20260504040113 17 112 0.0 4.8 0.00 0.00 0.00 41 999.0
20260504035613 17 112 4.8 4.8 0.00 0.00 0.00 42 999.1
20260504035113 17 135 0.0 0.0 0.00 0.00 0.00 43 998.9
20260504034612 16 135 0.0 0.0 0.00 0.00 0.00 45 998.9
20260504034112 15 135 0.0 0.0 0.00 0.00 0.00 46 999.0
20260504033612 14 135 0.0 0.0 0.00 0.00 0.00 47 998.9
20260504033111 13 135 0.0 0.0 0.00 0.00 0.00 48 999.0
20260504032612 13 135 0.0 0.0 0.00 0.00 0.00 49 999.0
20260504032111 13 135 0.0 0.0 0.00 0.00 0.00 49 999.0
20260504031617 -15 90 0.0 0.0 0.00 0.00 0.00 49 998.9
20260504031611 13 90 0.0 0.0 0.00 0.00 0.00 49 998.9
20260504031111 13 90 0.0 0.0 0.00 0.00 0.00 50 999.0
20260504030610 13 90 0.0 0.0 0.00 0.00 0.00 50 999.0
20260504030110 13 90 0.0 0.0 0.00 0.00 0.00 50 999.0
20260504025609 13 90 0.0 0.0 0.00 0.00 0.00 50 999.1
20260504025109 13 90 0.0 0.0 0.00 0.00 0.00 50 999.1
20260504024609 13 90 0.0 0.0 0.00 0.00 0.00 50 999.1
20260504024108 13 90 0.0 0.0 0.00 0.00 0.00 51 999.0
20260504023608 12 90 0.0 0.0 0.00 0.00 0.00 51 999.0
20260504023108 12 90 0.0 0.0 0.00 0.00 0.00 51 999.0
20260504022608 12 90 0.0 0.0 0.00 0.00 0.00 51 999.0
20260504022107 12 90 0.0 0.0 0.00 0.00 0.00 51 999.1
20260504021850 12 67 0.0 0.0 0.00 0.00 0.00 52 999.1
20260504021607 12 67 0.0 0.0 0.00 0.00 0.00 52 999.1
20260504021107 12 67 0.0 0.0 0.00 0.00 0.00 52 999.2
20260504020606 12 67 0.0 0.0 0.00 0.00 0.00 53 999.0
20260504020106 12 67 0.0 0.0 0.00 0.00 0.00 53 999.1
20260504015606 12 67 0.0 0.0 0.00 0.00 0.00 54 999.1
20260504015106 12 67 0.0 0.0 0.00 0.00 0.00 54 999.1
20260504014606 12 112 0.0 0.0 0.00 0.00 0.00 54 999.1
20260504014105 12 112 0.0 0.0 0.00 0.00 0.00 54 999.1
20260504013742 12 112 0.0 0.0 0.00 0.00 0.00 53 999.1
20260504013605 12 112 0.0 0.0 0.00 0.00 0.00 53 999.1
20260504013104 12 112 0.0 0.0 0.00 0.00 0.00 53 999.1
20260504012604 12 112 0.0 0.0 0.00 0.00 0.00 53 999.1
20260504012104 12 112 0.0 0.0 0.00 0.00 0.00 52 999.1
20260504011604 12 112 0.0 0.0 0.00 0.00 0.00 52 999.2
20260504011145 12 112 0.0 0.0 0.00 0.00 0.00 52 999.2
20260504011104 12 112 0.0 0.0 0.00 0.00 0.00 52 999.2
20260504010603 12 112 0.0 0.0 0.00 0.00 0.00 52 999.2
20260504005602 12 112 0.0 0.0 0.00 0.00 0.00 52 999.1
20260504005102 12 112 0.0 0.0 0.00 0.00 0.00 51 999.2
20260504004602 13 112 0.0 0.0 0.00 0.00 0.00 51 999.1
20260504004101 13 112 0.0 0.0 0.00 0.00 0.00 51 999.1
20260504001052 13 112 0.0 0.0 0.00 0.00 0.00 50 999.0
20260504000551 13 112 0.0 0.0 0.00 0.00 0.00 49 999.0
20260504000051 13 112 0.0 0.0 0.00 0.00 0.00 49 999.0
20260503235551 13 112 0.0 0.0 0.00 0.00 0.00 48 999.1
20260503235051 13 112 0.0 0.0 0.00 0.00 0.00 48 999.0
20260503234550 13 112 0.0 0.0 0.00 0.00 0.00 47 999.1
20260503234050 14 112 0.0 0.0 0.00 0.00 0.00 47 999.2
20260503233556 14 112 0.0 0.0 0.00 0.00 0.00 47 999.2
20260503233550 14 112 0.0 0.0 0.00 0.00 0.00 47 999.2
20260503233049 14 112 0.0 0.0 0.00 0.00 0.00 47 999.2
20260503232549 14 112 0.0 0.0 0.00 0.00 0.00 48 999.3
20260503232049 14 112 0.0 0.0 0.00 0.00 0.00 47 999.2
20260503231548 14 112 0.0 0.0 0.00 0.00 0.00 47 999.3
20260503231048 14 112 0.0 0.0 0.00 0.00 0.00 47 999.3
20260503230548 14 112 0.0 0.0 0.00 0.00 0.00 47 999.4
20260503230048 14 112 0.0 0.0 0.00 0.00 0.00 46 999.4
20260503225547 14 112 0.0 0.0 0.00 0.00 0.00 46 999.2
20260503225047 14 112 0.0 0.0 0.00 0.00 0.00 45 999.3
20260503224547 15 112 0.0 0.0 0.00 0.00 0.00 45 999.2
20260503224046 15 112 0.0 0.0 0.00 0.00 0.00 44 999.2
20260503223546 15 112 0.0 0.0 0.00 0.00 0.00 44 999.3
20260503223046 15 112 0.0 0.0 0.00 0.00 0.00 44 999.2
20260503222546 15 112 0.0 0.0 0.00 0.00 0.00 44 999.4
20260503222046 15 112 0.0 0.0 0.00 0.00 0.00 43 999.5
20260503221545 16 112 0.0 0.0 0.00 0.00 0.00 43 999.4
20260503221045 16 112 0.0 0.0 0.00 0.00 0.00 43 999.5
20260503220544 16 112 0.0 0.0 0.00 0.00 0.00 43 999.4
20260503220044 16 112 0.0 0.0 0.00 0.00 0.00 43 999.5
20260503215544 16 112 0.0 0.0 0.00 0.00 0.00 42 999.4
20260503215044 16 112 0.0 0.0 0.00 0.00 0.00 42 999.5
20260503214543 16 112 0.0 0.0 0.00 0.00 0.00 42 999.4
20260503214043 16 112 0.0 0.0 0.00 0.00 0.00 41 999.5
20260503213543 16 112 0.0 0.0 0.00 0.00 0.00 41 999.4
20260503213042 16 112 0.0 0.0 0.00 0.00 0.00 41 999.3
20260503212542 16 112 0.0 0.0 0.00 0.00 0.00 40 999.3
20260503212042 17 112 0.0 0.0 0.00 0.00 0.00 40 999.3
20260503211541 17 112 0.0 0.0 0.00 0.00 0.00 40 999.3
20260503211041 17 135 0.0 0.0 0.00 0.00 0.00 39 999.4
20260503210541 17 135 0.0 0.0 0.00 0.00 0.00 39 999.4
20260503210041 17 135 0.0 0.0 0.00 0.00 0.00 39 999.3
20260503205540 17 135 0.0 0.0 0.00 0.00 0.00 38 999.5
20260503205040 17 135 0.0 0.0 0.00 0.00 0.00 38 999.7
20260503204540 17 135 0.0 0.0 0.00 0.00 0.00 38 999.6
20260503204039 17 135 0.0 0.0 0.00 0.00 0.00 38 999.6
20260503203539 17 135 0.0 0.0 0.00 0.00 0.00 37 999.5
20260503203039 18 135 0.0 0.0 0.00 0.00 0.00 37 999.4
20260503202539 18 135 0.0 0.0 0.00 0.00 0.00 37 999.4
20260503202038 18 135 0.0 0.0 0.00 0.00 0.00 37 999.4
20260503201538 18 135 0.0 0.0 0.00 0.00 0.00 36 999.4
20260503201038 18 135 0.0 0.0 0.00 0.00 0.00 36 999.4
20260503200537 18 135 0.0 0.0 0.00 0.00 0.00 35 999.4
20260503200037 18 180 0.0 0.0 0.00 0.00 0.00 35 999.4
20260503195537 18 180 0.0 0.0 0.00 0.00 0.00 34 999.2
20260503195036 18 180 0.0 0.0 0.00 0.00 0.00 34 999.3
20260503194536 18 180 0.0 0.0 0.00 0.00 0.00 34 999.2
20260503194036 19 180 0.0 0.0 0.00 0.00 0.00 34 999.4
20260503193536 19 180 0.0 0.0 0.00 0.00 0.00 33 999.4
20260503193035 19 180 0.0 0.0 0.00 0.00 0.00 33 999.3
20260503192535 20 180 0.0 0.0 0.00 0.00 0.00 32 999.3
20260503192035 20 180 0.0 0.0 0.00 0.00 0.00 32 999.3
20260503191534 20 180 0.0 0.0 0.00 0.00 0.00 32 999.3
20260503191034 20 180 0.0 0.0 0.00 0.00 0.00 32 999.3
20260503190534 20 180 0.0 0.0 0.00 0.00 0.00 32 999.4
20260503190034 20 180 0.0 0.0 0.00 0.00 0.00 32 999.5
20260503185533 20 180 0.0 0.0 0.00 0.00 0.00 32 999.4
20260503185033 20 180 0.0 0.0 0.00 0.00 0.00 31 999.4
20260503184533 20 180 0.0 0.0 0.00 0.00 0.00 30 999.3
20260503184032 20 180 0.0 0.0 0.00 0.00 0.00 30 999.2
20260503183532 21 180 0.0 0.0 0.00 0.00 0.00 30 999.3
20260503183032 21 180 0.0 0.0 0.00 0.00 0.00 30 999.2
20260503182531 21 180 0.0 0.0 0.00 0.00 0.00 29 999.2
20260503182035 21 180 0.0 0.0 0.00 0.00 0.00 29 999.2
20260503181531 21 180 0.0 0.0 0.00 0.00 0.00 29 999.1
20260503181031 22 180 0.0 0.0 0.00 0.00 0.00 28 999.1
20260503180530 22 180 0.0 0.0 0.00 0.00 0.00 28 999.0
20260503180030 22 180 0.0 0.0 0.00 0.00 0.00 28 999.0
20260503175530 23 180 0.0 0.0 0.00 0.00 0.00 26 999.0
20260503175029 23 180 0.0 0.0 0.00 0.00 0.00 27 999.0
20260503174529 23 180 0.0 0.0 0.00 0.00 0.00 25 998.9
20260503174029 24 180 0.0 0.0 0.00 0.00 0.00 25 998.9
20260503173529 25 180 0.0 0.0 0.00 0.00 0.00 24 998.9
20260503173028 26 180 0.0 0.0 0.00 0.00 0.00 23 998.8
20260503172528 28 180 0.0 0.0 0.00 0.00 0.00 22 998.8
20260503172029 30 180 0.0 0.0 0.00 0.00 0.00 21 998.9
20260503171527 30 180 0.0 0.0 0.00 0.00 0.00 20 998.7
20260503171027 30 202 0.0 0.0 0.00 0.00 0.00 20 998.9
20260503170527 30 202 0.0 0.0 0.00 0.00 0.00 20 999.1
20260503150520 26 45 1.6 1.6 0.00 0.00 0.00 23 999.5
20260503131013 26 157 0.0 0.0 0.00 0.00 0.00 22 1000.6
20260503130513 26 180 0.0 0.0 0.00 0.00 0.00 23 1000.7
20260503120133 25 90 0.0 0.0 0.00 0.00 0.00 24 1001.2
20260503110630 25 22 0.0 0.0 0.00 0.00 0.00 25 1001.9
20260503110129 25 202 0.0 8.0 0.00 0.00 0.00 25 1002.1
20260503100126 23 202 3.2 4.8 0.00 0.00 0.00 27 1002.5